TimeMDT,TemperatureF,Dew PointF,Humidity,Sea Level PressureIn,VisibilityMPH,Wind Direction,Wind SpeedMPH,Gust SpeedMPH,PrecipitationIn,Events,Conditions,WindDirDegrees,DateUTC
3:55 PM,26.6,15.8,64,29.81,10.0,SW,33.4,42.6,N/A,,Overcast,230,2013-03-17 21:55:00
4:15 PM,26.6,12.2,55,29.80,7.0,WSW,34.5,39.1,N/A,,Overcast,240,2013-03-17 22:15:00
4:35 PM,26.6,12.2,55,29.81,5.0,WSW,26.5,50.6,N/A,,Haze,250,2013-03-17 22:35:00
4:55 PM,26.6,12.2,55,29.82,4.0,SW,33.4,46.0,N/A,,Haze,230,2013-03-17 22:55:00
5:15 PM,28.4,14.0,55,29.83,5.0,SW,23.0,48.3,N/A,,Haze,230,2013-03-17 23:15:00
5:35 PM,24.8,15.8,69,29.84,5.0,SSW,23.0,40.3,N/A,,Haze,210,2013-03-17 23:35:00
5:55 PM,24.8,15.8,69,29.84,10.0,WSW,24.2,36.8,N/A,,Mostly Cloudy,240,2013-03-17 23:55:00
6:15 PM,24.8,14.0,64,29.85,10.0,SW,20.7,28.8,N/A,,Overcast,220,2013-03-18 00:15:00
6:35 PM,24.8,12.2,59,29.86,10.0,SW,15.0,25.3,N/A,,Overcast,230,2013-03-18 00:35:00
6:55 PM,23.0,12.2,63,29.87,10.0,WSW,17.3,27.6,N/A,,Overcast,250,2013-03-18 00:55:00
7:15 PM,23.0,5.0,46,29.87,5.0,WSW,25.3,43.7,N/A,,Haze,240,2013-03-18 01:15:00
7:35 PM,23.0,3.2,43,29.88,10.0,West,16.1,31.1,N/A,,Overcast,260,2013-03-18 01:35:00
7:55 PM,23.0,5.0,46,29.89,10.0,WSW,17.3,25.3,N/A,,Overcast,250,2013-03-18 01:55:00
8:15 PM,23.0,5.0,46,29.90,10.0,West,16.1,25.3,N/A,,Overcast,260,2013-03-18 02:15:00
8:35 PM,21.2,5.0,50,29.89,10.0,WSW,26.5,36.8,N/A,,Overcast,240,2013-03-18 02:35:00
8:55 PM,21.2,3.2,46,29.91,10.0,West,24.2,35.7,N/A,,Mostly Cloudy,260,2013-03-18 02:55:00
9:15 PM,21.2,3.2,46,29.91,10.0,WSW,19.6,25.3,N/A,,Mostly Cloudy,250,2013-03-18 03:15:00
9:35 PM,21.2,1.4,42,29.91,10.0,WSW,18.4,25.3,N/A,,Mostly Cloudy,240,2013-03-18 03:35:00
9:55 PM,21.2,1.4,42,29.92,10.0,WSW,15.0,23.0,N/A,,Scattered Clouds,250,2013-03-18 03:55:00
10:15 PM,19.4,1.4,46,29.93,10.0,West,13.8,25.3,N/A,,Scattered Clouds,260,2013-03-18 04:15:00
10:35 PM,19.4,-0.4,42,29.93,10.0,WSW,18.4,33.4,N/A,,Scattered Clouds,250,2013-03-18 04:35:00
10:55 PM,19.4,-0.4,42,29.93,10.0,West,21.9,29.9,N/A,,Clear,270,2013-03-18 04:55:00
11:15 PM,19.4,-0.4,42,29.94,10.0,WSW,25.3,35.7,N/A,,Clear,250,2013-03-18 05:15:00
11:35 PM,17.6,-0.4,45,29.94,10.0,WSW,15.0,35.7,N/A,,Clear,250,2013-03-18 05:35:00
11:55 PM,17.6,-0.4,45,29.95,10.0,West,16.1,23.0,N/A,,Clear,260,2013-03-18 05:55:00